Brainerd, MN

12:25 AM CDT on August 24, 2017 (GMT -0500)
Brainerd-Crow Wing County Regional

Weather History for KBRD - December, 2011

Change the Weather History Date:

Friday, December 9, 2011

  Actual Average Record
Temperature  
Mean Temperature 9 °F -  
Max Temperature 15 °F 26 °F 55 °F (1990)
Min Temperature 3 °F 5 °F -21 °F (1978)
Degree Days  
Heating Degree Days 56    
Moisture  
Dew Point -4 °F    
Average Humidity 58    
Maximum Humidity 73    
Minimum Humidity 39    
Precipitation  
Precipitation 0.00 in - - ()
Sea Level Pressure  
Sea Level Pressure 30.30 in    
Wind  
Wind Speed 8 mph (West)    
Max Wind Speed 13 mph    
Max Gust Speed 18 mph    
Visibility 10 miles    
Events      
Averages and records for this station are not official NWS values.
T = Trace of Precipitation, MM = Missing Value Source: NWS Daily Summary

Daily Weather History Graph

Daily Weather History Graph

Search for Another Location

Airport or City:

Trip Planner

Search our weather history database for the weather conditions in past years. The results will help you decide how hot, cold, wet, or windy it might be!

Date:

Astronomy

Dec. 09, 2011 Rise Set
Actual Time 7:47 AM CST 4:29 PM CST
Civil Twilight 7:13 AM CST 5:04 PM CST
Nautical Twilight 6:35 AM CST 5:42 PM CST
Astronomical Twilight 5:58 AM CST 6:19 PM CST
Moon 3:53 PM CST (12/9) 6:56 AM CST (12/9)
Length of Visible Light 9h 51m
Length of Day
8h 41m
Waxing Gibbous, 99% of the Moon is Illuminated
Dec 9
Waxing Gibbous
Dec 10
Full
Dec 17
Last Quarter
Dec 24
New
Jan 1
First Quarter

Hourly Weather History & Observations

Time (CST) Temp. Windchill Dew Point Humidity Pressure Visibility Wind Dir Wind Speed Gust Speed Precip Events Conditions
12:53 AM 9.0 °F -4.2 °F -0.9 °F 64% 30.19 in 10.0 mi West 9.2 mph - N/A   Clear
1:53 AM 9.0 °F -2.2 °F -0.9 °F 64% 30.19 in 10.0 mi West 6.9 mph - N/A   Clear
2:53 AM 8.1 °F -3.2 °F -2.0 °F 64% 30.21 in 10.0 mi West 6.9 mph - N/A   Clear
3:53 AM 6.1 °F -4.3 °F -2.0 °F 69% 30.22 in 10.0 mi West 5.8 mph - N/A   Clear
4:53 AM 6.1 °F -6.8 °F -2.0 °F 69% 30.22 in 10.0 mi West 8.1 mph - N/A   Clear
5:53 AM 6.1 °F -6.8 °F -2.9 °F 67% 30.24 in 10.0 mi West 8.1 mph - N/A   Clear
6:53 AM 3.9 °F -5.3 °F -2.9 °F 73% 30.27 in 10.0 mi West 4.6 mph - N/A   Clear
7:53 AM 3.0 °F -8.0 °F -4.0 °F 73% 30.28 in 10.0 mi West 5.8 mph - N/A   Clear
8:53 AM 5.0 °F -6.9 °F -2.9 °F 70% 30.30 in 10.0 mi WNW 6.9 mph - N/A   Clear
9:53 AM 7.0 °F -4.5 °F -4.0 °F 61% 30.32 in 10.0 mi WNW 6.9 mph - N/A   Clear
10:53 AM 9.0 °F -5.9 °F -4.0 °F 56% 30.33 in 10.0 mi West 11.5 mph - N/A   Clear
11:53 AM 12.0 °F -2.0 °F -5.1 °F 46% 30.33 in 10.0 mi West 11.5 mph - N/A   Clear
12:53 PM 14.0 °F 0.5 °F -4.0 °F 45% 30.32 in 10.0 mi WNW 11.5 mph - N/A   Clear
1:53 PM 15.1 °F 1.1 °F -5.1 °F 41% 30.32 in 10.0 mi WNW 12.7 mph 18.4 mph N/A   Clear
2:53 PM 15.1 °F 1.8 °F -5.1 °F 41% 30.33 in 10.0 mi WNW 11.5 mph - N/A   Clear
3:53 PM 14.0 °F 1.2 °F -7.1 °F 39% 30.35 in 10.0 mi West 10.4 mph - N/A   Clear
4:53 PM 10.9 °F -1.8 °F -6.0 °F 47% 30.35 in 10.0 mi WSW 9.2 mph - N/A   Clear
5:53 PM 9.0 °F -2.2 °F -6.0 °F 51% 30.36 in 10.0 mi WSW 6.9 mph - N/A   Clear
6:53 PM 9.0 °F -3.2 °F -6.0 °F 51% 30.37 in 10.0 mi WSW 8.1 mph - N/A   Clear
7:53 PM 6.1 °F -4.3 °F -6.0 °F 58% 30.38 in 10.0 mi SW 5.8 mph - N/A   Clear
8:53 PM 5.0 °F -5.6 °F -6.0 °F 61% 30.37 in 10.0 mi SW 5.8 mph - N/A   Clear
9:53 PM 6.1 °F -4.3 °F -6.0 °F 58% 30.35 in 10.0 mi South 5.8 mph - N/A   Clear
10:53 PM 3.0 °F -6.4 °F -6.0 °F 66% 30.35 in 10.0 mi SSW 4.6 mph - N/A   Clear
11:53 PM 3.0 °F -8.0 °F -6.0 °F 66% 30.34 in 10.0 mi SW 5.8 mph - N/A   Clear